Regional Weather Roundup
Issued by NWS

Home | Current Version | Previous Version | Text Only | Print | Product List | Glossary Off
Versions: 1 2 3 4 5 6 7 8 9 10 11 12 13 14 15 16 17 18 19 20 21 22 23 24 25 26 27 28 29 30 31 32 33 34 35 36 37 38 39 40 41 42 43 44 45 46 47 48 49 50

000
ASUS43 KLMK 100010
RWRKY
KENTUCKY REGIONAL WEATHER ROUNDUP
NATIONAL WEATHER SERVICE LOUISVILLE KY
800 PM EDT WED JUL 09 2014

NOTE "FAIR" INDICATES FEW OR NO CLOUDS BELOW 12,000 FEET
WITH NO SIGNIFICANT WEATHER AND/OR OBSTRUCTIONS TO VISIBILITY.

KYZ001>023-026-027-061>063-070>075-100100-
WESTERN AND SOUTH CENTRAL KENTUCKY

CITY           SKY/WX    TMP DP  RH WIND       PRES   REMARKS
PADUCAH        SUNNY     85  61  44 W5        29.97R
HENDERSON      SUNNY     82  64  54 W5        29.96R
OWENSBORO      SUNNY     83  63  50 W6        29.97R
HOPKINSVILLE   SUNNY     83  57  40 NW7       29.98S
BOWLING GREEN  SUNNY     83  56  39 N5        29.98R
GLASGOW        SUNNY     81  57  43 NW3       29.98S
$$

KYZ024-025-028>034-038-045-046-053-100100-
NORTH CENTRAL KENTUCKY

CITY           SKY/WX    TMP DP  RH WIND       PRES   REMARKS
LOUISVILLE/SDF MOSUNNY   83  57  41 W10       29.96R
LOUISVILLE/LOU SUNNY     84  57  39 NW8       29.96R
FORT KNOX      SUNNY     80  64  57 W2        29.97R
$$

KYZ035>037-039>044-047>052-055>060-089>105-100100-
NORTHEAST KENTUCKY

CITY           SKY/WX    TMP DP  RH WIND       PRES   REMARKS
LEXINGTON      SUNNY     82  58  43 W5        29.98R
COVINGTON      MOSUNNY   79  58  48 W12       29.97R
FRANKFORT      SUNNY     81  57  43 W6        29.96R
$$

KYZ054-064>069-076>088-106>120-100100-
SOUTHEAST KENTUCKY

CITY           SKY/WX    TMP DP  RH WIND       PRES   REMARKS
JACKSON        CLEAR     80  59  48 CALM      29.99S
LONDON         CLEAR     82  60  47 NW5       30.00R
SOMERSET       SUNNY     81  55  41 N5        30.00R
MIDDLESBORO    MOCLDY    79  68  70 S3        30.01R
MONTICELLO     CLEAR     82  65  56 NW6       30.00R
$$



USA.gov is the U.S. government's official web portal to all federal, state and local government web resources and services.